Regional Weather Roundup
Issued by NWS Sioux Falls, SD

Home | Current Version | Previous Version | Text Only | Print | Product List | Glossary On
Versions: 1 2 3 4 5 6 7 8 9 10 11 12 13 14 15 16 17 18 19 20 21 22 23 24 25 26 27 28 29 30 31 32 33 34 35 36 37 38 39 40 41 42 43 44 45 46 47 48 49 50
895
ASUS43 KFSD 021710
RWRFSD

WEATHER ROUNDUP FOR SE SOUTH DAKOTA/SW MINNESOTA/NW IOWA
NATIONAL WEATHER SERVICE SIOUX FALLS SD
1200 PM CDT MON MAY 02 2016

NOTE: "FAIR" INDICATES FEW OR NO CLOUDS BELOW 12,000 FEET WITH NO
SIGNIFICANT WEATHER AND OR OBSTRUCTIONS TO VISIBILITY.


SDZ038>040-050-052>070-021800-
SOUTHEAST SOUTH DAKOTA

CITY           SKY/WX    TMP DP  RH WIND       PRES   REMARKS
CHAMBERLAIN    PTSUNNY   57  44  60 S8        30.09F
HURON          MOSUNNY   61  39  44 MISG      30.07F
MADISON        FAIR      57  36  44 W3        30.10F
MITCHELL       PTSUNNY   61  42  49 CALM      30.10F
SIOUX FALLS    PTSUNNY   59  38  45 NW10      30.10F
WINNER         PTSUNNY   58  38  47 W6        30.10F
YANKTON        CLOUDY    57  39  51 NW8       30.12F
$$

MNZ071-072-080-081-089-090-097-098-021800-
SOUTHWEST MINNESOTA

CITY           SKY/WX    TMP DP  RH WIND       PRES   REMARKS
FAIRMONT       PTSUNNY   57  21  24 W5        30.11S
JACKSON        CLOUDY    59  32  36 NW5       30.11F
LUVERNE        MOSUNNY   59  32  36 NW5       30.11S
MARSHALL       PTSUNNY   61  33  35 SE5       30.09F
MONTEVIDEO     MOSUNNY   66  36  32 CALM      30.09F
PIPESTONE      PTSUNNY   61  27  27 CALM      30.09F
REDWOOD FALLS  SUNNY     62  31  31 SW6       30.08F
TRACY          MOSUNNY   61  34  36 N6        30.09F
WINDOM         MOSUNNY   61  34  36 CALM      30.10F
WORTHINGTON    MOSUNNY   57  34  41 VRB3      30.11F
$$

IAZ001>003-012>014-020>022-031-032-NEZ013-014-SDZ071-021800-
NORTHWEST IOWA

CITY           SKY/WX    TMP DP  RH WIND       PRES   REMARKS
CHEROKEE       SUNNY     60  39  45 W8        30.12F
DENISON        SUNNY     59  41  51 N7        30.10S
ESTHERVILLE    PTSUNNY   59  39  47 VRB3      30.10F
LE MARS        SUNNY     59  36  41 NW7       30.13F
ORANGE CITY    MOSUNNY   57  37  47 CALM      30.12S
SHELDON        SUNNY     59  37  44 VRB6      30.10F
SIOUX CITY     MOSUNNY   62  39  42 N6        30.13F
SPENCER        MOSUNNY   58  31  35 W5        30.12S
STORM LAKE     SUNNY     59  37  44 VRB6G12   30.12S
$$

ABBREVIATIONS USED IN REMARKS
   TC - TEMPERATURE IN CELSIUS
  WCI - WIND CHILL INDEX
   HX - HEAT INDEX
  VSB - VISIBILITY





USA.gov is the U.S. government's official web portal to all federal, state and local government web resources and services.